Stündliche Wetter La Rioja

Heute, 11 Mai, Dienstag

Zeit Temperatur Niederschläge Wind Luftdruck Luftfeuchtigkeit
00:00 +4°C° 0 mm 2 m/S 662 mmHg 88%
01:00 +4°C° 0 mm 2 m/S 662 mmHg 87%
02:00 +3°C° 0 mm 3 m/S 662 mmHg 86%
03:00 +3°C° 0 mm 3 m/S 662 mmHg 86%
04:00 +2°C° 0 mm 3 m/S 663 mmHg 84%
05:00 +2°C° 0 mm 3 m/S 663 mmHg 82%
06:00 +1°C° 0 mm 3 m/S 664 mmHg 80%
07:00 +3°C° 0 mm 4 m/S 664 mmHg 71%
08:00 +4°C° 0 mm 4 m/S 665 mmHg 62%
09:00 +6°C° 0 mm 5 m/S 666 mmHg 53%
10:00 +7°C° 0 mm 5 m/S 666 mmHg 49%
11:00 +8°C° 0 mm 5 m/S 666 mmHg 44%
12:00 +10°C° 0 mm 6 m/S 667 mmHg 40%
13:00 +10°C° 0 mm 6 m/S 667 mmHg 39%
14:00 +10°C° 0 mm 6 m/S 667 mmHg 39%
15:00 +11°C° 0 mm 6 m/S 667 mmHg 38%
16:00 +10°C° 0 mm 5 m/S 667 mmHg 42%
17:00 +10°C° 0 mm 4 m/S 666 mmHg 47%
18:00 +10°C° 0 mm 3 m/S 666 mmHg 51%
19:00 +8°C° 0 mm 3 m/S 667 mmHg 59%
20:00 +6°C° 0 mm 2 m/S 667 mmHg 66%
21:00 +5°C° 0 mm 1 m/S 667 mmHg 74%
22:00 +4°C° 0 mm 2 m/S 666 mmHg 75%
23:00 +4°C° 0 mm 2 m/S 666 mmHg 75%

Morgen, 12 Mai, Mittwoch

Zeit Temperatur Niederschläge Wind Luftdruck Luftfeuchtigkeit
00:00 +4°C° 0 mm 2 m/S 666 mmHg 76%
01:00 +4°C° 0 mm 2 m/S 665 mmHg 76%
02:00 +5°C° 0 mm 2 m/S 665 mmHg 76%
03:00 +5°C° 0 mm 2 m/S 665 mmHg 76%
04:00 +5°C° 0.1 mm 2 m/S 665 mmHg 78%
05:00 +5°C° 0.1 mm 2 m/S 664 mmHg 79%
06:00 +5°C° 0.1 mm 2 m/S 664 mmHg 81%
07:00 +7°C° 0 mm 3 m/S 664 mmHg 74%
08:00 +7°C° 0 mm 4 m/S 665 mmHg 68%
09:00 +9°C° 0 mm 5 m/S 665 mmHg 61%
10:00 +10°C° 0 mm 6 m/S 665 mmHg 56%
11:00 +11°C° 0 mm 7 m/S 665 mmHg 52%
12:00 +12°C° 0 mm 8 m/S 665 mmHg 47%
13:00 +12°C° 0 mm 8 m/S 665 mmHg 47%
14:00 +12°C° 0 mm 7 m/S 665 mmHg 46%
15:00 +12°C° 0 mm 7 m/S 665 mmHg 46%
16:00 +10°C° 0.2 mm 5 m/S 665 mmHg 56%
17:00 +8°C° 0.2 mm 4 m/S 665 mmHg 66%
18:00 +8°C° 0.2 mm 3 m/S 666 mmHg 76%
19:00 +7°C° 0.1 mm 2 m/S 666 mmHg 80%
20:00 +6°C° 0.1 mm 2 m/S 666 mmHg 84%
21:00 +7°C° 0.1 mm 1 m/S 666 mmHg 87%
22:00 +6°C° 0 mm 1 m/S 666 mmHg 88%
23:00 +6°C° 0 mm 1 m/S 666 mmHg 88%

übermorgen, 13 Mai, Donnerstag

Zeit Temperatur Niederschläge Wind Luftdruck Luftfeuchtigkeit
00:00 +5°C° 0 mm 0 m/S 666 mmHg 89%
01:00 +4°C° 0 mm 0 m/S 665 mmHg 89%
02:00 +5°C° 0 mm 1 m/S 665 mmHg 89%
03:00 +5°C° 0 mm 1 m/S 665 mmHg 88%
04:00 +5°C° 0 mm 1 m/S 665 mmHg 88%
05:00 +5°C° 0 mm 1 m/S 665 mmHg 87%
06:00 +5°C° 0 mm 1 m/S 665 mmHg 87%
07:00 +6°C° 0 mm 2 m/S 665 mmHg 79%
08:00 +7°C° 0 mm 2 m/S 665 mmHg 72%
09:00 +9°C° 0 mm 2 m/S 665 mmHg 65%
10:00 +9°C° 0 mm 3 m/S 665 mmHg 65%
11:00 +10°C° 0 mm 3 m/S 664 mmHg 64%
12:00 +10°C° 0 mm 3 m/S 664 mmHg 63%
13:00 +10°C° 0.3 mm 3 m/S 664 mmHg 68%
14:00 +10°C° 0.3 mm 3 m/S 663 mmHg 73%
15:00 +9°C° 0.3 mm 3 m/S 663 mmHg 78%
16:00 +9°C° 0.4 mm 3 m/S 662 mmHg 80%
17:00 +9°C° 0.4 mm 3 m/S 662 mmHg 82%
18:00 +9°C° 0.4 mm 3 m/S 662 mmHg 84%
19:00 +8°C° 0.3 mm 3 m/S 662 mmHg 86%
20:00 +8°C° 0.3 mm 3 m/S 662 mmHg 87%
21:00 +7°C° 0.3 mm 3 m/S 662 mmHg 89%
22:00 +7°C° 0.5 mm 2 m/S 662 mmHg 89%
23:00 +7°C° 0.5 mm 2 m/S 663 mmHg 90%

14 Mai, Freitag

Zeit Temperatur Niederschläge Wind Luftdruck Luftfeuchtigkeit
00:00 +7°C° 0.5 mm 2 m/S 663 mmHg 91%
01:00 +6°C° 1.2 mm 2 m/S 663 mmHg 91%
02:00 +6°C° 1.2 mm 2 m/S 663 mmHg 92%
03:00 +5°C° 1.2 mm 3 m/S 663 mmHg 92%
04:00 +4°C° 0.5 mm 3 m/S 663 mmHg 91%
05:00 +4°C° 0.5 mm 2 m/S 664 mmHg 91%
06:00 +4°C° 0.5 mm 2 m/S 664 mmHg 90%
07:00 +4°C° 0 mm 3 m/S 665 mmHg 81%
08:00 +5°C° 0 mm 4 m/S 665 mmHg 73%
09:00 +6°C° 0 mm 4 m/S 666 mmHg 64%
10:00 +7°C° 0 mm 5 m/S 666 mmHg 58%
11:00 +9°C° 0 mm 5 m/S 666 mmHg 52%
12:00 +10°C° 0 mm 5 m/S 666 mmHg 46%
13:00 +10°C° 0 mm 5 m/S 666 mmHg 45%
14:00 +12°C° 0 mm 5 m/S 666 mmHg 43%
15:00 +12°C° 0 mm 5 m/S 666 mmHg 42%
16:00 +11°C° 0 mm 4 m/S 666 mmHg 47%
17:00 +10°C° 0 mm 4 m/S 667 mmHg 51%
18:00 +10°C° 0 mm 4 m/S 667 mmHg 55%
19:00 +8°C° 0 mm 3 m/S 667 mmHg 63%
20:00 +6°C° 0 mm 2 m/S 667 mmHg 71%
21:00 +5°C° 0 mm 1 m/S 667 mmHg 79%
22:00 +5°C° 0 mm 1 m/S 667 mmHg 78%
23:00 +5°C° 0 mm 1 m/S 667 mmHg 77%

15 Mai, Samstag

Zeit Temperatur Niederschläge Wind Luftdruck Luftfeuchtigkeit
00:00 +5°C° 0 mm 1 m/S 666 mmHg 76%
01:00 +5°C° 0 mm 1 m/S 666 mmHg 75%
02:00 +5°C° 0 mm 1 m/S 666 mmHg 75%
03:00 +5°C° 0 mm 1 m/S 666 mmHg 74%
04:00 +6°C° 0 mm 1 m/S 666 mmHg 71%
05:00 +7°C° 0 mm 1 m/S 666 mmHg 69%
06:00 +8°C° 0 mm 1 m/S 666 mmHg 67%
07:00 +9°C° 0 mm 1 m/S 666 mmHg 62%
08:00 +11°C° 0 mm 1 m/S 667 mmHg 57%
09:00 +12°C° 0 mm 1 m/S 667 mmHg 52%
10:00 +14°C° 0 mm 2 m/S 667 mmHg 50%
11:00 +16°C° 0 mm 2 m/S 667 mmHg 48%
12:00 +18°C° 0 mm 3 m/S 668 mmHg 46%
13:00 +19°C° 0 mm 3 m/S 667 mmHg 47%
14:00 +19°C° 0 mm 4 m/S 667 mmHg 47%
15:00 +20°C° 0 mm 4 m/S 667 mmHg 48%
16:00 +20°C° 0 mm 3 m/S 667 mmHg 52%
17:00 +19°C° 0 mm 3 m/S 667 mmHg 57%
18:00 +18°C° 0 mm 2 m/S 667 mmHg 61%
19:00 +17°C° 0 mm 2 m/S 667 mmHg 67%
20:00 +15°C° 0 mm 2 m/S 668 mmHg 73%
21:00 +13°C° 0 mm 2 m/S 668 mmHg 79%
22:00 +13°C° 0 mm 1 m/S 667 mmHg 81%
23:00 +12°C° 0 mm 1 m/S 667 mmHg 84%

16 Mai, Sonntag

Zeit Temperatur Niederschläge Wind Luftdruck Luftfeuchtigkeit
00:00 +12°C° 0 mm 1 m/S 667 mmHg 86%
01:00 +11°C° 0 mm 1 m/S 667 mmHg 87%
02:00 +11°C° 0 mm 1 m/S 667 mmHg 88%
03:00 +10°C° 0 mm 2 m/S 667 mmHg 88%
04:00 +10°C° 0 mm 2 m/S 667 mmHg 87%
05:00 +10°C° 0 mm 2 m/S 667 mmHg 85%
06:00 +12°C° 0 mm 2 m/S 667 mmHg 83%
07:00 +14°C° 0 mm 2 m/S 667 mmHg 72%
08:00 +16°C° 0 mm 2 m/S 668 mmHg 62%
09:00 +18°C° 0 mm 2 m/S 668 mmHg 51%
10:00 +19°C° 0 mm 3 m/S 669 mmHg 48%
11:00 +20°C° 0 mm 3 m/S 669 mmHg 44%
12:00 +21°C° 0 mm 4 m/S 669 mmHg 41%
13:00 +22°C° 0 mm 4 m/S 669 mmHg 41%
14:00 +22°C° 0 mm 4 m/S 668 mmHg 41%
15:00 +22°C° 0 mm 5 m/S 668 mmHg 41%
16:00 +21°C° 0 mm 4 m/S 668 mmHg 47%
17:00 +19°C° 0 mm 4 m/S 668 mmHg 53%
18:00 +18°C° 0 mm 4 m/S 667 mmHg 60%
19:00 +15°C° 0 mm 4 m/S 668 mmHg 69%
20:00 +13°C° 0 mm 3 m/S 668 mmHg 79%
21:00 +10°C° 0 mm 3 m/S 668 mmHg 89%
22:00 +10°C° 0 mm 3 m/S 669 mmHg 88%
23:00 +9°C° 0 mm 2 m/S 669 mmHg 88%
Mehr zeigen

Wir brauchen deine Erlaubnis

Meteoprog und unser Service Anbieter werden persönliche Daten aufbewahren, so wie Cookies, Geräte Bezeichnung oder ähnliche Technologien von deinem Gerät und Prozess, so wie Persönliche Daten Inhalte und Werbungen, genauso wie social Media und den Verkehr zu analysieren.

  • Aufbewahrung und/oder Zugang zu deiner Geräte Informationen.

    Cookies, Geräte Bezeichnung oder andere Informationen, können aufbewahrt oder Zugang zu deinem Gerät erhalten, für den Grund, der oben angegeben wird.

  • Personalisierte Werbung und Inhalte, Messungen, Einblick in das Publikum und Produkt Entwicklung.

    Werbungen und Inhalte können personalisiert werden, basierend auf ein Profil. Mehr Daten können besser personalisierte Werbungen und Inhalte hinzufügen. Werbung und Inhalte können gezeigt und gemessen werden. Einblicke über das Publikum, welche die Werbung gesehen haben und den Inhalt, können abgeleitet werden. So wie Daten können genutzt werden, um es zu verbessern oder die Benutzer Erfahrung zu verbessern das System und die Software.

Wenn du “Ich stimme zu” klickst, erlaubst du uns, die Cookies zu benutzen die Geräte Bezeichnung, den Web oder ähnliche Technologien zu benutzen. Deine Settings, können in deinem Gerät bei deinem Browser geändert werden.

Für den bestimmten Zweck, berechtigten Interessen beruhen darauf, mehr als auf den Inhalt. Du kannst mehr darüber in unseren Privaten und Cookie Politik lesen.